カタログに戻る

EXPRESS AM-2

運用中通信GEO
NORAD 28629·PAYLOAD·🇷🇺 Russia

打ち上げ Mar 29, 2005 から Baikonur Cosmodrome

Loading…

TLE

最新Source: Space-Track

元期: Sep 14, 2026, 09:09 UTC

1 28629U 05010A   26257.38132516 -.00000099  00000-0  00000-0 0  9993
2 28629   9.9133  54.3711 0022360 114.2229  63.0307  0.99039428 41445

AllMySatでEXPRESS AM-2をリアルタイム追跡

Download on the App Store